"Pseudo-MPEC" for P11OugI

Created 2023 Nov 26 9:22:07 UT using Find_Orb

Click here for an explanation of pseudo-MPECs

 
 Astrometry: 
     P11OugI* C2023 11 20c%H[K;(1SZI79'c^n?lu1wx#b?cT$kAstrometryr*m-/c6@JCSdF51
     P11OugI  C2023 11 20$pMjo,y+^JGp(8Bf_PuH@pdj9q.rB1E2ZG`#D'Eg0]cvwmLE3BdXF51
     P11OugI  C2023 11 205[faWQ,i1-bLbep$mpEW-cS*VYPD!:kOhR-t9redacted;P+F8W.F51
     P11OugI  C2023 11 20$(gKxf(+O56`If*JZ,ocNpH;GT;9e$qmEBkclick1$Q;ng!=-_AAF51
     P11OugI 6C2023 11 21E7*smUv.V*#oo'gcLc.8h_S6L.S3GNTl?_?2n;@JEx?o%`X,J@DlZ84
     P11OugI 6C2023 11 21Q(,9[@:/N,O3K;[A6+@4%5meGyhere5hw[H(cTuxt5bIu76!,rBBZ84
     P11OugI |C2023 11 21WbV\RJy#kAUMi]6DY5rHwuDhfEt8A=o]M,5Q.iUyd0LTGcRZR$)O807
     P11OugI |C2023 11 21T'q@E2G'^j3tAu=Pu[`G5bdAB%ET,pNf`3XgrHUFDP=fort%x5Mh807
     P11OugI |C2023 11 21Qkcsbcyaq_XELt+9,Me/\e-2\[l5Js#!d@uL^N4UgF!mt`a3iolv807
     P11OugI KC2023 11 21\(XN=(Gt*e;YlyaZT(/Pp7Z)=$Scil2q/or*S]yfOx'/,/i_C2vX474
     P11OugI KC2023 11 21on\W6k##3r4q%rpk!Hr1T'TJAxexplanation\qV,e8bw(T+pgW_474
     P11OugI KC2023 11 218\W.M20EC?'xiHP?,2_xN\(\fS$ClI%-55-YT41D6;JUG6:ydv%G474
     P11OugI KC2023 11 213ET7iFSIIXV^HcqQ\gw$wxn7wYhWZUhlEhyHk2Y)ZB!6N77;io8g474

Station data:
(474) Mount John Observatory, Lake Tekapo  (S43.987385 E170.464960)  New
   Zealand.  Observers A. C. Gilmore, P. M. Kilmartin. Measurer P. M.
   Kilmartin. 1.0-m f/7.7 reflector + CCD.
(807) Cerro Tololo Observatory, La Serena  (S30.169133 W70.805900)  Chile.
   Observer R. Holmes. 0.61-m f/6.5 astrograph + CCD.
(F51) Pan-STARRS 1, Haleakala  (N20.707234 W156.255910)  US/Hawaii.
   Observers J. Bulger, T. Lowe, A. Schultz, M. Willman. Measurers K.
   Chambers, S. Chastel, T. de Boer, L. Denneau, J. Fairlamb, H. Flewelling,
   M. Huber, C.-C. Lin, E. Magnier, Y. Ramanjooloo, R. Wainscoat, R. Weryk.
   1.8-m Ritchey-Chrétien + CCD.
(Z84) Calar Alto-Schmidt  (N37.224046 W2.548210)  Spain.  Observer R. Kresken.
    Measurers E. Schwab, D. Koschny, M. Micheli. 0.8-m f/3 Schmidt + CCD.

Orbital elements:  P11OugI
   Perihelion 2023 Sep 30.51130 +/- 0.202 TT = 12:16:16 (JD 2460218.01130)
Epoch 2023 Nov 21.0 TT = JDT 2460269.5   Earth MOID: 0.0391      AutoNEOCP
M  11.66077865 +/- 0.39             (J2000 ecliptic)
n   0.22647259 +/- 0.00713          Peri.  166.06257 +/- 0.6
a   2.66558338 +/- 0.0559           Node   194.34483 +/- 0.7
e   0.6463176 +/- 0.00794           Incl.   12.50798 +/- 0.12
P   4.35                   H 22.13  G  0.15   U  9.4
q 0.94276982 +/- 0.00171    Q 4.38839693 +/- 0.113
From 13 observations 2023 Nov. 20-21 (28.1 hr); mean residual 0".11
Residuals in arcseconds: 
231120 F51  .07+  .00     231121 Z84  .05-  .32+    231121 474  .01-  .00     
231120 F51  .06-  .06-    231121 807  .19+  .09-    231121 474  .10-  .06-    
231120 F51  .08+  .09+    231121 807  .15+  .21-    231121 474  .05-  .01-    
231120 F51  .10-  .04-    231121 807  .09-  .13+    
231121 Z84  .05-  .13-    231121 474  .07+  .05+    

Ephemerides (geocentric):
Date (UTC) HH   RA             Dec           delta  r     elong  mag " sig PA
---- --------  ------------   ------------  ------ ------ -----  --- --------
2023 11 26 09  05 04 38.814   -20 40 38.57  .30180 1.2224 136.1 21.4 8.06 149
2023 11 26 10  05 04 36.322   -20 39 39.04  .30213 1.2227 136.1 21.4 8.17 149
2023 11 26 11  05 04 33.833   -20 38 39.53  .30245 1.2231 136.1 21.4 8.27 149
2023 11 26 12  05 04 31.348   -20 37 40.04  .30278 1.2234 136.1 21.4 8.37 149
2023 11 26 13  05 04 28.865   -20 36 40.57  .30311 1.2237 136.2 21.4 8.48 149
2023 11 26 14  05 04 26.385   -20 35 41.11  .30343 1.2241 136.2 21.4 8.58 149
2023 11 26 15  05 04 23.909   -20 34 41.66  .30376 1.2244 136.2 21.4 8.69 149
2023 11 26 16  05 04 21.435   -20 33 42.24  .30409 1.2247 136.2 21.4 8.79 149
2023 11 26 17  05 04 18.965   -20 32 42.82  .30442 1.2251 136.3 21.4 8.90 149
2023 11 26 18  05 04 16.498   -20 31 43.43  .30474 1.2254 136.3 21.4 9.00 149
2023 11 26 19  05 04 14.034   -20 30 44.05  .30507 1.2258 136.3 21.4 9.11 149
2023 11 26 20  05 04 11.573   -20 29 44.68  .30540 1.2261 136.3 21.4 9.22 149
2023 11 26 21  05 04 09.115   -20 28 45.33  .30573 1.2264 136.4 21.4 9.32 149
2023 11 26 22  05 04 06.660   -20 27 46.00  .30605 1.2268 136.4 21.4 9.43 149
2023 11 26 23  05 04 04.209   -20 26 46.68  .30638 1.2271 136.4 21.4 9.54 149
2023 11 27 00  05 04 01.760   -20 25 47.37  .30671 1.2275 136.4 21.4 9.65 149
2023 11 27 01  05 03 59.315   -20 24 48.09  .30704 1.2278 136.5 21.4 9.76 149
2023 11 27 02  05 03 56.872   -20 23 48.81  .30737 1.2281 136.5 21.4 9.87 149
2023 11 27 03  05 03 54.433   -20 22 49.55  .30770 1.2285 136.5 21.4 9.98 149
2023 11 27 04  05 03 51.997   -20 21 50.31  .30802 1.2288 136.5 21.4 10.1 149
2023 11 27 05  05 03 49.564   -20 20 51.08  .30835 1.2292 136.6 21.4 10.2 149
2023 11 27 06  05 03 47.134   -20 19 51.86  .30868 1.2295 136.6 21.4 10.3 149
2023 11 27 07  05 03 44.707   -20 18 52.66  .30901 1.2298 136.6 21.4 10.4 149
2023 11 27 08  05 03 42.283   -20 17 53.48  .30934 1.2302 136.6 21.4 10.5 149
2023 11 27 09  05 03 39.862   -20 16 54.30  .30967 1.2305 136.7 21.4 10.6 149
2023 11 27 10  05 03 37.444   -20 15 55.15  .31000 1.2309 136.7 21.4 10.8 149
2023 11 27 11  05 03 35.030   -20 14 56.00  .31033 1.2312 136.7 21.4 10.9 149
2023 11 27 12  05 03 32.618   -20 13 56.87  .31066 1.2315 136.7 21.4 11.0 149
2023 11 27 13  05 03 30.210   -20 12 57.76  .31099 1.2319 136.8 21.4 11.1 149
2023 11 27 14  05 03 27.804   -20 11 58.66  .31132 1.2322 136.8 21.4 11.2 149
2023 11 27 15  05 03 25.402   -20 10 59.57  .31165 1.2326 136.8 21.4 11.3 149
2023 11 27 16  05 03 23.003   -20 10 00.49  .31198 1.2329 136.8 21.4 11.4 149
2023 11 27 17  05 03 20.607   -20 09 01.43  .31231 1.2332 136.9 21.5 11.5 149
2023 11 27 18  05 03 18.214   -20 08 02.39  .31264 1.2336 136.9 21.5 11.7 149
2023 11 27 19  05 03 15.824   -20 07 03.36  .31297 1.2339 136.9 21.5 11.8 149
2023 11 27 20  05 03 13.437   -20 06 04.34  .31330 1.2343 136.9 21.5 11.9 149
2023 11 27 21  05 03 11.053   -20 05 05.33  .31363 1.2346 136.9 21.5 12.0 149
2023 11 27 22  05 03 08.672   -20 04 06.34  .31396 1.2349 137.0 21.5 12.1 149
2023 11 27 23  05 03 06.294   -20 03 07.36  .31429 1.2353 137.0 21.5 12.2 149
2023 11 28 00  05 03 03.919   -20 02 08.39  .31463 1.2356 137.0 21.5 12.4 149
2023 11 28 01  05 03 01.548   -20 01 09.44  .31496 1.2360 137.0 21.5 12.5 148
2023 11 28 02  05 02 59.179   -20 00 10.50  .31529 1.2363 137.1 21.5 12.6 148
2023 11 28 03  05 02 56.814   -19 59 11.57  .31562 1.2366 137.1 21.5 12.7 148
2023 11 28 04  05 02 54.451   -19 58 12.66  .31595 1.2370 137.1 21.5 12.8 148
2023 11 28 05  05 02 52.092   -19 57 13.75  .31628 1.2373 137.1 21.5 13.0 148
2023 11 28 06  05 02 49.736   -19 56 14.87  .31662 1.2377 137.2 21.5 13.1 148
2023 11 28 07  05 02 47.382   -19 55 15.99  .31695 1.2380 137.2 21.5 13.2 148
2023 11 28 08  05 02 45.032   -19 54 17.12  .31728 1.2384 137.2 21.5 13.3 148